Home   Weather   Recklinghausen   Past weeks

Flag for Germany Past Weather in Recklinghausen, North Rhine-Westphalia, Germany — Yesterday and Last 2 Weeks

Now
52 °F

Clear.


Feels Like: 49 °F
Forecast: 38 / 48 °F
Wind: 8 mph from Southwest

Location: Dortmund / Wickede

Current Time: Apr 24, 2017 at 9:25:25 pm

Latest Report: Apr 24, 2017 at 8:50 pm


Visibility: 10 mi

Pressure: 29.77 "Hg

Humidity: 50%

Dew Point: 34 °F

Location of RecklinghausenLocation

Past Weather in Recklinghausen — Graph

°F

Recklinghausen Temperature Yesterday

Maximum temperature yesterday: 48 °F (at 5:20 pm)
Minimum temperature yesterday: 37 °F (at 5:20 am)
Average temperature yesterday: 42 °F

High & Low Weather Summary for the Past Weeks

 TemperatureHumidityPressure
High66 °F (Apr 9, 7:20 pm)93% (Apr 14, 6:50 am)30.60 "Hg (Apr 14, 6:50 am)
Low25 °F (Apr 20, 5:20 am)28% (Apr 20, 3:20 pm)29.80 "Hg (Apr 24, 7:20 pm)
Average45 °F65%30.16 "Hg
* Reported Apr 9 7:20 pm — Apr 24 7:50 pm, Recklinghausen, Weather by CustomWeather, © 2017

Note: Actual official high and low records may vary slightly from our data, if they occured in-between our weather recording intervals... More about our weather records

Advertising

Recklinghausen Weather History for the Previous 24 Hours

Scroll right to see more
 ConditionsComfort  
Time TempWeatherWind HumidityBarometerVisibility
7:50 pm
Mon, Apr 24
54 °FSunny.10 mph47%29.80 "Hg10 mi
7:20 pm54 °FSunny.12 mph47%29.80 "Hg10 mi
6:50 pm54 °FPassing clouds.10 mph47%29.83 "HgN/A
6:20 pm54 °FSunny.12 mph47%29.83 "Hg10 mi
5:50 pm54 °FPassing clouds.13 mph47%29.83 "HgN/A
5:20 pm55 °FPassing clouds.14 mph44%29.86 "HgN/A
4:50 pm55 °FSunny.15 mph44%29.86 "Hg10 mi
4:20 pm55 °FSunny.16 mph44%29.86 "Hg10 mi
3:50 pm55 °FSunny.16 mph44%29.89 "Hg10 mi
3:20 pm55 °FPassing clouds.17 mph47%29.89 "HgN/A
2:50 pm57 °FPassing clouds.16 mph44%29.92 "HgN/A
2:20 pm55 °FPassing clouds.14 mph44%29.92 "HgN/A
1:50 pm55 °FPassing clouds.16 mph47%29.95 "HgN/A
1:20 pm54 °FSunny.18 mph47%29.95 "Hg10 mi
12:50 pm52 °FSunny.16 mph50%29.98 "Hg10 mi
12:20 pm54 °FPassing clouds.16 mph47%29.98 "HgN/A
11:50 am52 °FPassing clouds.17 mph47%29.98 "HgN/A
11:20 am52 °FSunny.15 mph47%30.01 "Hg10 mi
10:50 am50 °FPassing clouds.13 mph50%30.01 "HgN/A
10:20 am46 °FSunny.14 mph53%30.01 "Hg10 mi
9:50 am48 °FSunny.14 mph54%30.04 "Hg10 mi
9:20 am46 °FSunny.15 mph57%30.04 "Hg10 mi
8:50 am43 °FSunny.12 mph71%30.04 "Hg10 mi
8:20 am41 °FSunny.12 mph70%30.07 "Hg10 mi
7:50 am39 °FSunny.12 mph75%30.07 "Hg10 mi
7:20 am37 °FSunny.12 mph75%30.07 "Hg10 mi
6:50 am36 °FSunny.13 mph81%30.07 "Hg10 mi
6:20 am36 °FSunny.13 mph81%30.07 "Hg10 mi
5:50 am34 °FClear.10 mph87%30.09 "Hg10 mi
5:20 am34 °FClear.12 mph87%30.09 "Hg10 mi
9:50 pm
Sun, Apr 23
37 °FClear.7 mph81%30.24 "Hg10 mi
9:20 pm43 °FClear.7 mph66%30.21 "Hg10 mi
Weather by CustomWeather, © 2017

See weather overviewHow to use our weather pages